{"data":{"norad_id":69038,"intl_designator":"2026-101P","name":"STARLINK-37466","alt_names":[],"object_type":"PAYLOAD","status":"ACTIVE","operator":null,"country":"US","launch_date":"2026-05-06","launch_site_code":"AFWTR","launch_vehicle":null,"mission":null,"orbit_class":"UNKNOWN","rcs_meters":null,"size_class":null,"mass_kg":null,"dimensions":null,"purposes":["comms"],"wikipedia_slug":null,"has_3d_model":false,"image_url":null,"decayed_at":null,"tle_current":{"epoch":"2026-05-25T04:00:03.998880Z","epoch_age_seconds":60552,"freshness":"FRESH","line1":"1 69038U 26101P   26145.16671295 -.01913619  00000+0 -23963-1 0  9996","line2":"2 69038  97.2852 359.9109 0001631  91.1563 352.7616 15.62920466  4255","mean_motion":15.62920466,"eccentricity":0.0001631,"inclination_deg":97.2852,"raan_deg":359.9109,"arg_perigee_deg":91.1563,"mean_anomaly_deg":352.7616,"bstar":-0.023963,"rev_number":425,"period_min":92.135206578068,"perigee_km":378.12397331149,"apogee_km":380.32822515446,"semimajor_km":6757.363099233,"source":"CELESTRAK","updated_at":"2026-05-25T13:38:22.082043Z"}}}